Meteo orario Zagozdzie

Oggi, 29 Luglio, Giovedi

Tempo Temperatura Precipitazioni Vento Pressione Umidità
00:00 +20°C° 0.8 mm 3 m/s 745 mm Hg 94%
01:00 +20°C° 0.8 mm 2 m/s 745 mm Hg 97%
02:00 +19°C° 1.6 mm 2 m/s 745 mm Hg 97%
03:00 +19°C° 1.6 mm 2 m/s 745 mm Hg 97%
04:00 +19°C° 1.6 mm 2 m/s 745 mm Hg 96%
05:00 +20°C° 0 mm 3 m/s 745 mm Hg 92%
06:00 +20°C° 0 mm 4 m/s 745 mm Hg 88%
07:00 +21°C° 0 mm 4 m/s 745 mm Hg 84%
08:00 +22°C° 0 mm 4 m/s 745 mm Hg 75%
09:00 +25°C° 0 mm 4 m/s 745 mm Hg 66%
10:00 +26°C° 0 mm 4 m/s 745 mm Hg 57%
11:00 +27°C° 0 mm 5 m/s 745 mm Hg 53%
12:00 +28°C° 0 mm 5 m/s 745 mm Hg 49%
13:00 +28°C° 0 mm 5 m/s 745 mm Hg 45%
14:00 +28°C° 0 mm 5 m/s 745 mm Hg 48%
15:00 +27°C° 0 mm 5 m/s 745 mm Hg 51%
16:00 +26°C° 0 mm 5 m/s 745 mm Hg 54%
17:00 +25°C° 0 mm 4 m/s 745 mm Hg 58%
18:00 +24°C° 0 mm 3 m/s 745 mm Hg 61%
19:00 +23°C° 0 mm 2 m/s 745 mm Hg 65%
20:00 +21°C° 0 mm 3 m/s 745 mm Hg 66%
21:00 +20°C° 0 mm 3 m/s 745 mm Hg 67%
22:00 +20°C° 0 mm 3 m/s 745 mm Hg 68%
23:00 +19°C° 0 mm 3 m/s 745 mm Hg 68%

Domani, 30 Luglio, Venerdi

Tempo Temperatura Precipitazioni Vento Pressione Umidità
00:00 +19°C° 0 mm 2 m/s 745 mm Hg 67%
01:00 +18°C° 0 mm 2 m/s 745 mm Hg 67%
02:00 +19°C° 0 mm 2 m/s 745 mm Hg 65%
03:00 +19°C° 0 mm 2 m/s 745 mm Hg 63%
04:00 +19°C° 0 mm 2 m/s 745 mm Hg 61%
05:00 +20°C° 0 mm 2 m/s 745 mm Hg 60%
06:00 +21°C° 0 mm 3 m/s 745 mm Hg 59%
07:00 +22°C° 0 mm 3 m/s 745 mm Hg 58%
08:00 +23°C° 0 mm 4 m/s 745 mm Hg 54%
09:00 +25°C° 0 mm 4 m/s 745 mm Hg 50%
10:00 +26°C° 0 mm 4 m/s 745 mm Hg 46%
11:00 +27°C° 0 mm 5 m/s 745 mm Hg 44%
12:00 +27°C° 0 mm 5 m/s 744 mm Hg 42%
13:00 +28°C° 0 mm 6 m/s 744 mm Hg 40%
14:00 +28°C° 0 mm 5 m/s 744 mm Hg 40%
15:00 +28°C° 0 mm 5 m/s 744 mm Hg 40%
16:00 +28°C° 0 mm 5 m/s 743 mm Hg 40%
17:00 +26°C° 0 mm 4 m/s 743 mm Hg 46%
18:00 +25°C° 0 mm 3 m/s 743 mm Hg 53%
19:00 +23°C° 0 mm 2 m/s 743 mm Hg 59%
20:00 +21°C° 0 mm 2 m/s 743 mm Hg 60%
21:00 +20°C° 0 mm 2 m/s 743 mm Hg 61%
22:00 +20°C° 0 mm 2 m/s 743 mm Hg 61%
23:00 +19°C° 0 mm 2 m/s 743 mm Hg 63%

Dopodomani, 31 Luglio, Sabato

Tempo Temperatura Precipitazioni Vento Pressione Umidità
00:00 +19°C° 0 mm 2 m/s 743 mm Hg 65%
01:00 +18°C° 0 mm 2 m/s 743 mm Hg 67%
02:00 +18°C° 0 mm 2 m/s 743 mm Hg 67%
03:00 +18°C° 0 mm 2 m/s 743 mm Hg 68%
04:00 +17°C° 0 mm 2 m/s 743 mm Hg 68%
05:00 +19°C° 0 mm 2 m/s 743 mm Hg 65%
06:00 +21°C° 0 mm 2 m/s 743 mm Hg 61%
07:00 +23°C° 0 mm 2 m/s 743 mm Hg 58%
08:00 +25°C° 0 mm 2 m/s 743 mm Hg 53%
09:00 +27°C° 0 mm 3 m/s 743 mm Hg 49%
10:00 +29°C° 0 mm 3 m/s 743 mm Hg 44%
11:00 +29°C° 0 mm 4 m/s 742 mm Hg 47%
12:00 +29°C° 0 mm 5 m/s 742 mm Hg 50%
13:00 +28°C° 0 mm 6 m/s 742 mm Hg 53%
14:00 +26°C° 0.7 mm 5 m/s 742 mm Hg 64%
15:00 +23°C° 0.7 mm 4 m/s 742 mm Hg 75%
16:00 +20°C° 0.7 mm 3 m/s 742 mm Hg 86%
17:00 +20°C° 0 mm 3 m/s 742 mm Hg 86%
18:00 +20°C° 0 mm 3 m/s 742 mm Hg 87%
19:00 +19°C° 0 mm 3 m/s 742 mm Hg 88%
20:00 +19°C° 0 mm 3 m/s 742 mm Hg 90%
21:00 +18°C° 0 mm 3 m/s 742 mm Hg 92%
22:00 +18°C° 0 mm 3 m/s 743 mm Hg 94%
23:00 +17°C° 0 mm 3 m/s 743 mm Hg 90%

1 Agosto, Domenica

Tempo Temperatura Precipitazioni Vento Pressione Umidità
00:00 +17°C° 0 mm 3 m/s 743 mm Hg 86%
01:00 +17°C° 0 mm 3 m/s 743 mm Hg 83%
02:00 +16°C° 0 mm 3 m/s 743 mm Hg 81%
03:00 +16°C° 0 mm 2 m/s 743 mm Hg 79%
04:00 +15°C° 0 mm 2 m/s 743 mm Hg 78%
05:00 +17°C° 0 mm 2 m/s 743 mm Hg 72%
06:00 +18°C° 0 mm 2 m/s 744 mm Hg 66%
07:00 +20°C° 0 mm 2 m/s 744 mm Hg 61%
08:00 +23°C° 0 mm 2 m/s 744 mm Hg 55%
09:00 +24°C° 0 mm 2 m/s 744 mm Hg 49%
10:00 +26°C° 0 mm 2 m/s 744 mm Hg 43%
11:00 +24°C° 0.1 mm 2 m/s 744 mm Hg 51%
12:00 +23°C° 0.1 mm 2 m/s 744 mm Hg 60%
13:00 +20°C° 0.1 mm 3 m/s 744 mm Hg 69%
14:00 +20°C° 0.1 mm 3 m/s 743 mm Hg 69%
15:00 +20°C° 0.1 mm 3 m/s 743 mm Hg 70%
16:00 +20°C° 0.1 mm 3 m/s 742 mm Hg 70%
17:00 +19°C° 1 mm 3 m/s 742 mm Hg 77%
18:00 +18°C° 1 mm 3 m/s 742 mm Hg 84%
19:00 +17°C° 1 mm 3 m/s 742 mm Hg 91%
20:00 +17°C° 0.8 mm 3 m/s 742 mm Hg 92%
21:00 +17°C° 0.8 mm 3 m/s 742 mm Hg 93%
22:00 +17°C° 0.8 mm 3 m/s 742 mm Hg 94%
23:00 +17°C° 0.5 mm 3 m/s 741 mm Hg 94%

2 Agosto, Lunedi

Tempo Temperatura Precipitazioni Vento Pressione Umidità
00:00 +15°C° 0.5 mm 4 m/s 741 mm Hg 93%
01:00 +15°C° 0.5 mm 4 m/s 741 mm Hg 93%
02:00 +16°C° 0.2 mm 3 m/s 741 mm Hg 94%
03:00 +16°C° 0.2 mm 3 m/s 741 mm Hg 94%
04:00 +16°C° 0.2 mm 3 m/s 741 mm Hg 94%
05:00 +16°C° 0.9 mm 3 m/s 742 mm Hg 95%
06:00 +14°C° 0.9 mm 4 m/s 742 mm Hg 96%
07:00 +14°C° 0.9 mm 5 m/s 742 mm Hg 96%
08:00 +14°C° 1.5 mm 4 m/s 743 mm Hg 94%
09:00 +15°C° 1.5 mm 4 m/s 743 mm Hg 91%
10:00 +16°C° 1.5 mm 3 m/s 743 mm Hg 89%
11:00 +18°C° 0.2 mm 3 m/s 744 mm Hg 80%
12:00 +20°C° 0.2 mm 3 m/s 744 mm Hg 70%
13:00 +21°C° 0.2 mm 4 m/s 744 mm Hg 61%
14:00 +21°C° 0.5 mm 4 m/s 744 mm Hg 62%
15:00 +21°C° 0.5 mm 4 m/s 744 mm Hg 63%
16:00 +22°C° 0.5 mm 4 m/s 744 mm Hg 65%
17:00 +20°C° 0.3 mm 4 m/s 744 mm Hg 71%
18:00 +19°C° 0.3 mm 4 m/s 744 mm Hg 77%
19:00 +18°C° 0.3 mm 3 m/s 744 mm Hg 83%
20:00 +17°C° 0.1 mm 3 m/s 744 mm Hg 86%
21:00 +16°C° 0.1 mm 3 m/s 744 mm Hg 89%
22:00 +14°C° 0.1 mm 3 m/s 745 mm Hg 92%
23:00 +14°C° 0 mm 3 m/s 745 mm Hg 93%

3 Agosto, Martedi

Tempo Temperatura Precipitazioni Vento Pressione Umidità
00:00 +14°C° 0 mm 3 m/s 745 mm Hg 93%
01:00 +13°C° 0 mm 3 m/s 745 mm Hg 94%
02:00 +13°C° 0 mm 3 m/s 745 mm Hg 94%
03:00 +13°C° 0 mm 3 m/s 746 mm Hg 94%
04:00 +13°C° 0 mm 3 m/s 746 mm Hg 94%
05:00 +14°C° 0 mm 3 m/s 746 mm Hg 88%
06:00 +16°C° 0 mm 3 m/s 746 mm Hg 82%
07:00 +18°C° 0 mm 3 m/s 746 mm Hg 76%
08:00 +19°C° 0 mm 3 m/s 747 mm Hg 66%
09:00 +21°C° 0 mm 3 m/s 747 mm Hg 56%
10:00 +22°C° 0 mm 3 m/s 747 mm Hg 46%
11:00 +22°C° 0 mm 3 m/s 747 mm Hg 47%
12:00 +24°C° 0 mm 3 m/s 746 mm Hg 48%
13:00 +24°C° 0 mm 3 m/s 746 mm Hg 49%
14:00 +24°C° 0 mm 3 m/s 746 mm Hg 51%
15:00 +23°C° 0 mm 2 m/s 746 mm Hg 53%
16:00 +23°C° 0 mm 2 m/s 746 mm Hg 55%
17:00 +21°C° 0 mm 2 m/s 746 mm Hg 58%
18:00 +20°C° 0 mm 2 m/s 746 mm Hg 61%
19:00 +20°C° 0 mm 1 m/s 746 mm Hg 64%
20:00 +18°C° 0 mm 2 m/s 746 mm Hg 67%
21:00 +17°C° 0 mm 2 m/s 746 mm Hg 70%
22:00 +16°C° 0 mm 2 m/s 746 mm Hg 72%
23:00 +16°C° 0 mm 2 m/s 746 mm Hg 74%
Mostrare altro

Abbiamo bisogno del tuo consenso

Meteoprog e i nostri fornitori di servizi possono memorizzare e accedere a dati personali come cookie, identificatori di dispositivi o altre tecnologie simili sul tuo dispositivo e possono elaborare tali dati per personalizzare i contenuti e gli annunci, nonché fornire funzionalità dei social media e analizzarne il traffico.

  • Archiviare e/o accedere alle informazioni sul tuo dispositivo

    Cookie, identificatori di dispositivi o altre informazioni possono essere memorizzati o resi accessibili sul tuo dispositivo per le finalità sopra indicate.

  • Annunci e contenuti personalizzati, misurazione di annunci e contenuti, approfondimenti sul pubblico e sviluppo di prodotti

    Gli annunci e i contenuti possono essere personalizzati in base a un profilo. È possibile aggiungere più dati per personalizzare meglio annunci e contenuti. È possibile misurare il rendimento degli annunci e dei contenuti. È possibile ricavare informazioni sul pubblico che ha visto gli annunci e i contenuti. Tali dati possono essere utilizzati per sviluppare o migliorare l'esperienza, i sistemi e il software dell'utente.

Cliccando su “Accetto”, acconsenti all'uso di cookie, identificatori di dispositivo, web beacon o altre tecnologie simili. Puoi modificare le impostazioni nel browser del tuo dispositivo.

Per determinati scopi, è possibile fare affidamento su interessi legali, piuttosto che sul consenso. Puoi approfondire questo argomento consultando la nostra Informativa sulla privacy e sui cookie.